Showing default

ORBCOMM FM 20, 25416

Orbit data source: Space-Track

ORBCOMM FM 20, 25416 is a payload satellite owned by Orbcomm (US) in LEO that was launched on Sun, 02 Aug 1998 UTC via a PEGASUS XL/HAPS launch vehicle from the Pegasus Launch, Eastern Range Air Space (ERAS). Payloads include a variety of satellites, spacecraft, and rockets equipped with specific instruments for various scientific and technological missions. These include communications satellites like Starlink; space stations such as the ISS; scientific satellites like the Hubble; Earth observation satellites from companies like Planet Labs, Umbra, and HawkEye 360; GPS; miniature CubeSats for education and research; and military/defense satellites.

Loading next visibility...
ORBCOMM FM 20 details
Identifier
25416, 1998-046D
Orbit
LEO
Last TLE update10 hours ago
Origin
Flag of USOrbcomm (US / ORB)
ManufacturerOSC-Germantown
MissionOperational Commercial Communications
Bus & MotorMICROSTAR, Unknown motor
Mass42 kg wet, 42 kg dry
Launch date (UTC)
1998-08-02 (26 years ago)
Launch vehicle
PEGASUS XL/HAPS
Launch site
Pegasus Launch, Eastern Range Air Space (ERAS)
Object type
Payload
Rocket body
Debris
Shape & HBRCyl + 2 Pan, 4.3 m
Radar Cross Section1.484 m², Medium (>0.1 m² and < 1m²)

Expand to show TLE details & history

TLE from 10 hours ago
0 ORBCOMM FM 20
1 25416U 98046D   24361.48501661  .00002872  00000-0  10172-2 0  9994
2 25416  44.9942 278.7524 0000981   8.7179 351.3685 14.36503397379424
Epoch: 2024-12-26T11:38Z
Definitive object data (Epoch: 2024-12-26T11:38:25.435Z)
Latitude-0.00003°
Longitude8.68265°
Altitude769.38 km
Speed7.471 km/s
True Right ascension18h 35m 00s
True Declination0° 00' 00"
Sunlit
Object was in daylight at TLE epoch
Visualization TLE readout
Latitude-26.62921°
Longitude-23.17881°
Altitude776.606 km
Speed7.466 km/s
Apparent Right ascension13h 25m 45s
Apparent Declination-49° 09' 04"
Sunlit
Object is in daylight
Visualization observer readout
Local Sidereal Time20:51:24
Azimuth234.963° WSW
Elevation-41.953°
Doppler factor1
Orbital elements
Apogee altitude772.322 km
Perigee altitude770.919 km
Semi-major axis7,149.758 km
Eccentricity0.0000981
Inclination44.9942°
RAAN278.7524°
Arg. of periapsis8.7179°
True anomaly351.36681°
Mean anomaly351.3685°
Eccentric anomaly351.36766°
Mean motion3.5901 °/min
BSTAR0.0010172
Orbital period100.28 mins
Loading maneuver chart data...

ORBCOMM FM 20 Visibility forecast

Observer location: undefined°, undefined

Span
Click to sort rows by Start time (UTC) header in descending order
Start Az.
Max El. time (UTC)
Max El. Az.
Max El.
End time (UTC)
End Az.
9 mins2024-12-26 21:50:24.766Z218.681° SW2024-12-26 21:54:24.766Z161.116° S37.384°2024-12-26 21:59:24.766Z74.183° E
9 mins2024-12-26 23:36:24.766Z268.094° W2024-12-26 23:40:24.766Z3.487° NNE41.22°2024-12-26 23:45:24.766Z66.198° ENE
8 mins2024-12-27 01:22:24.766Z296.023° NW2024-12-27 01:26:24.766Z21.726° NNE37.021°2024-12-27 01:30:24.766Z77.858° E
9 mins2024-12-27 03:07:24.766Z293.533° NW2024-12-27 03:11:24.766Z297.838° NW44.732°2024-12-27 03:16:24.766Z114.595° SE
7 mins2024-12-27 04:53:24.766Z266.999° W2024-12-27 04:56:24.766Z223.875° SW24.2°2024-12-27 05:00:24.766Z168.67° S
8 mins2024-12-27 21:12:24.766Z206.905° SW2024-12-27 21:16:24.766Z134.894° SE33.264°2024-12-27 21:20:24.766Z78.397° E
|